Location: Le Domaine
(47.0333°N, 76.5361°W)
Time: 21:10:22
(UTC-05:00)

S-56A Canister/Altair - Pass Details

Date: 23 November 2019
Orbit: 633 x 2500 km, 38.9° (Epoch: 12 December)

Event Time Altitude Azimuth Distance (km) Brightness Sun altitude
Rises 20:16:35 0° 273° (W) 4,521 12.4 -39.1°
Reaches altitude 10° 20:20:33 10° 262° (W) 3,202 11.3 -39.8°
Enters shadow 20:24:50 23° 233° (SW) 2,025 9.9 -40.5°
Maximum altitude 20:26:31 26° 210° (SSW) 1,797 - -40.8°
Drops below altitude 10° 20:31:03 10° 154° (SSE) 2,362 - -41.5°
Sets 20:33:31 0° 141° (SE) 3,135 - -41.9°
